Location: Clifton Park
(41.4873°N, 81.8024°W)
Time: 13:14:56
(UTC+00:00)

Cosmos 1703 - Pass Details

Date: 21 January 2020
Orbit: 524 x 541 km, 82.5° (Epoch: 16 February)

Event Time Altitude Azimuth Distance (km) Brightness Sun altitude
Exits shadow 11:15:11 - 354° (N) 2,689 6.7 -17.3°
Reaches altitude 10° 11:17:20 10° 357° (N) 1,803 5.8 -16.9°
Maximum altitude 11:21:17 68° 81° (E) 580 3.6 -16.2°
Drops below altitude 10° 11:25:10 10° 165° (SSE) 1,778 6.3 -15.5°
Sets 11:27:19 0° 168° (SSE) 2,661 7.2 -15.1°
